• In Latvia
  • List of Countries
  • For 7 days
  • Water Temperature
  • Satellite Maps
  • Weather Map
  • Weather Widgets
  • user-avatar
    Login

    Hourly Weather Neuquén

    Today, 24 September, Monday

    Time Temperature Precipitation Wind Pressure Humidity
    00:00 +9°C° 0 mm 6 mps 737 mmHg 45%
    01:00 +9°C° 0 mm 5 mps 737 mmHg 45%
    02:00 +8°C° 0 mm 4 mps 737 mmHg 46%
    03:00 +8°C° 0 mm 4 mps 737 mmHg 46%
    04:00 +9°C° 0 mm 3 mps 737 mmHg 47%
    05:00 +9°C° 0 mm 3 mps 737 mmHg 45%
    06:00 +10°C° 0 mm 2 mps 737 mmHg 44%
    07:00 +10°C° 0 mm 2 mps 737 mmHg 42%
    08:00 +12°C° 0 mm 2 mps 737 mmHg 39%
    09:00 +13°C° 0 mm 2 mps 737 mmHg 35%
    10:00 +14°C° 0 mm 2 mps 736 mmHg 32%
    11:00 +16°C° 0 mm 3 mps 736 mmHg 30%
    12:00 +17°C° 0 mm 4 mps 735 mmHg 28%
    13:00 +17°C° 0 mm 5 mps 734 mmHg 25%
    14:00 +18°C° 0 mm 4 mps 734 mmHg 24%
    15:00 +19°C° 0 mm 3 mps 733 mmHg 23%
    16:00 +19°C° 0 mm 3 mps 733 mmHg 22%
    17:00 +19°C° 0 mm 3 mps 733 mmHg 24%
    18:00 +18°C° 0 mm 3 mps 733 mmHg 25%
    19:00 +18°C° 0 mm 3 mps 733 mmHg 27%
    20:00 +17°C° 0 mm 3 mps 734 mmHg 29%
    21:00 +17°C° 0 mm 3 mps 734 mmHg 30%
    22:00 +16°C° 0 mm 3 mps 734 mmHg 32%
    23:00 +16°C° 0 mm 3 mps 734 mmHg 33%

    Tomorrow, 25 September, Tuesday

    Time Temperature Precipitation Wind Pressure Humidity
    00:00 +14°C° 0 mm 3 mps 734 mmHg 34%
    01:00 +13°C° 0 mm 4 mps 734 mmHg 35%
    02:00 +13°C° 0 mm 4 mps 734 mmHg 35%
    03:00 +12°C° 0 mm 4 mps 733 mmHg 35%
    04:00 +12°C° 0 mm 4 mps 733 mmHg 35%
    05:00 +12°C° 0 mm 5 mps 734 mmHg 34%
    06:00 +12°C° 0 mm 5 mps 734 mmHg 34%
    07:00 +13°C° 0 mm 5 mps 734 mmHg 34%
    08:00 +14°C° 0 mm 5 mps 734 mmHg 31%
    09:00 +15°C° 0 mm 4 mps 734 mmHg 28%
    10:00 +17°C° 0 mm 3 mps 734 mmHg 25%
    11:00 +18°C° 0 mm 3 mps 734 mmHg 24%
    12:00 +19°C° 0 mm 3 mps 733 mmHg 22%
    13:00 +19°C° 0 mm 3 mps 733 mmHg 20%
    14:00 +20°C° 0 mm 3 mps 733 mmHg 20%
    15:00 +20°C° 0 mm 2 mps 732 mmHg 19%
    16:00 +20°C° 0 mm 2 mps 732 mmHg 19%
    17:00 +19°C° 0 mm 2 mps 732 mmHg 21%
    18:00 +18°C° 0 mm 2 mps 733 mmHg 24%
    19:00 +18°C° 0 mm 1 mps 733 mmHg 26%
    20:00 +17°C° 0 mm 2 mps 734 mmHg 27%
    21:00 +16°C° 0 mm 2 mps 734 mmHg 27%
    22:00 +16°C° 0 mm 3 mps 735 mmHg 28%
    23:00 +16°C° 0 mm 3 mps 735 mmHg 29%

    Day after tomorrow, 26 September, Wednesday

    Time Temperature Precipitation Wind Pressure Humidity
    00:00 +14°C° 0 mm 3 mps 735 mmHg 30%
    01:00 +14°C° 0 mm 4 mps 735 mmHg 31%
    02:00 +13°C° 0 mm 4 mps 735 mmHg 33%
    03:00 +13°C° 0 mm 5 mps 735 mmHg 34%
    04:00 +11°C° 0 mm 6 mps 735 mmHg 35%
    05:00 +11°C° 0 mm 7 mps 736 mmHg 35%
    06:00 +11°C° 0 mm 8 mps 736 mmHg 35%
    07:00 +10°C° 0 mm 8 mps 737 mmHg 35%
    08:00 +11°C° 0.1 mm 8 mps 737 mmHg 37%
    09:00 +11°C° 0.1 mm 8 mps 737 mmHg 39%
    10:00 +11°C° 0.1 mm 8 mps 738 mmHg 40%
    11:00 +10°C° 0.5 mm 8 mps 737 mmHg 45%
    12:00 +10°C° 0.5 mm 7 mps 737 mmHg 50%
    13:00 +10°C° 0.5 mm 7 mps 737 mmHg 54%
    14:00 +9°C° 0.6 mm 7 mps 737 mmHg 58%
    15:00 +9°C° 0.6 mm 7 mps 736 mmHg 61%
    16:00 +9°C° 0.6 mm 7 mps 736 mmHg 64%
    17:00 +8°C° 1 mm 7 mps 737 mmHg 68%
    18:00 +8°C° 1 mm 7 mps 737 mmHg 72%
    19:00 +6°C° 1 mm 7 mps 738 mmHg 76%
    20:00 +6°C° 1.3 mm 7 mps 737 mmHg 78%
    21:00 +6°C° 1.3 mm 7 mps 737 mmHg 80%
    22:00 +6°C° 1.3 mm 7 mps 737 mmHg 82%
    23:00 +6°C° 1.3 mm 7 mps 737 mmHg 84%

    27 September, Thursday

    Time Temperature Precipitation Wind Pressure Humidity
    00:00 +7°C° 1.3 mm 6 mps 737 mmHg 86%
    01:00 +7°C° 1.3 mm 6 mps 736 mmHg 87%
    02:00 +6°C° 1.4 mm 7 mps 736 mmHg 88%
    03:00 +5°C° 1.4 mm 7 mps 736 mmHg 88%
    04:00 +5°C° 1.4 mm 8 mps 735 mmHg 88%
    05:00 +5°C° 1.2 mm 8 mps 736 mmHg 88%
    06:00 +5°C° 1.2 mm 7 mps 736 mmHg 88%
    07:00 +5°C° 1.2 mm 7 mps 736 mmHg 87%
    08:00 +5°C° 0.4 mm 7 mps 736 mmHg 86%
    09:00 +6°C° 0.4 mm 7 mps 736 mmHg 85%
    10:00 +7°C° 0.4 mm 6 mps 736 mmHg 85%
    11:00 +7°C° 0.6 mm 6 mps 735 mmHg 84%
    12:00 +8°C° 0.6 mm 5 mps 735 mmHg 84%
    13:00 +8°C° 0.6 mm 5 mps 734 mmHg 83%
    14:00 +8°C° 0.6 mm 5 mps 734 mmHg 84%
    15:00 +9°C° 0.6 mm 5 mps 734 mmHg 85%
    16:00 +9°C° 0.6 mm 5 mps 733 mmHg 86%
    17:00 +9°C° 0.9 mm 5 mps 733 mmHg 88%
    18:00 +9°C° 0.9 mm 5 mps 734 mmHg 90%
    19:00 +9°C° 0.9 mm 5 mps 734 mmHg 91%
    20:00 +10°C° 2 mm 4 mps 734 mmHg 92%
    21:00 +10°C° 2 mm 4 mps 733 mmHg 92%
    22:00 +10°C° 2 mm 4 mps 733 mmHg 93%
    23:00 +11°C° 0.3 mm 4 mps 732 mmHg 93%

    28 September, Friday

    Time Temperature Precipitation Wind Pressure Humidity
    00:00 +10°C° 0.3 mm 5 mps 731 mmHg 93%
    01:00 +12°C° 0.3 mm 5 mps 731 mmHg 93%
    02:00 +12°C° 0 mm 5 mps 730 mmHg 93%
    03:00 +12°C° 0 mm 5 mps 729 mmHg 93%
    04:00 +12°C° 0 mm 5 mps 729 mmHg 93%
    05:00 +13°C° 0 mm 6 mps 729 mmHg 91%
    06:00 +14°C° 0 mm 6 mps 729 mmHg 90%
    07:00 +15°C° 0 mm 6 mps 728 mmHg 88%
    08:00 +17°C° 0 mm 7 mps 728 mmHg 79%
    09:00 +20°C° 0 mm 8 mps 727 mmHg 71%
    10:00 +22°C° 0 mm 8 mps 727 mmHg 63%
    11:00 +24°C° 0 mm 8 mps 726 mmHg 53%
    12:00 +26°C° 0 mm 7 mps 725 mmHg 44%
    13:00 +28°C° 0 mm 7 mps 724 mmHg 34%
    14:00 +28°C° 0 mm 6 mps 724 mmHg 35%
    15:00 +27°C° 0 mm 6 mps 723 mmHg 37%
    16:00 +26°C° 0 mm 5 mps 723 mmHg 38%
    17:00 +26°C° 0.1 mm 5 mps 723 mmHg 41%
    18:00 +25°C° 0.1 mm 5 mps 723 mmHg 44%
    19:00 +23°C° 0.1 mm 4 mps 723 mmHg 47%
    20:00 +22°C° 0.2 mm 4 mps 723 mmHg 48%
    21:00 +21°C° 0.2 mm 4 mps 723 mmHg 48%
    22:00 +20°C° 0.2 mm 4 mps 723 mmHg 49%
    23:00 +20°C° 0.1 mm 4 mps 722 mmHg 51%

    29 September, Saturday

    Time Temperature Precipitation Wind Pressure Humidity
    00:00 +19°C° 0.1 mm 3 mps 722 mmHg 54%
    01:00 +19°C° 0.1 mm 2 mps 722 mmHg 57%
    02:00 +18°C° 0 mm 3 mps 722 mmHg 56%
    03:00 +18°C° 0 mm 4 mps 722 mmHg 56%
    04:00 +16°C° 0 mm 6 mps 723 mmHg 55%
    05:00 +16°C° 0 mm 8 mps 723 mmHg 51%
    06:00 +16°C° 0 mm 10 mps 724 mmHg 46%
    07:00 +15°C° 0 mm 12 mps 725 mmHg 42%
    08:00 +17°C° 0 mm 13 mps 725 mmHg 36%
    09:00 +18°C° 0 mm 14 mps 726 mmHg 31%
    10:00 +19°C° 0 mm 15 mps 726 mmHg 25%
    11:00 +20°C° 0 mm 15 mps 726 mmHg 23%
    12:00 +22°C° 0 mm 14 mps 726 mmHg 20%
    13:00 +23°C° 0 mm 13 mps 726 mmHg 18%
    14:00 +23°C° 0 mm 13 mps 726 mmHg 19%
    15:00 +23°C° 0 mm 12 mps 726 mmHg 19%
    16:00 +22°C° 0 mm 12 mps 726 mmHg 19%
    17:00 +21°C° 0 mm 10 mps 726 mmHg 23%
    18:00 +20°C° 0 mm 8 mps 727 mmHg 26%
    19:00 +17°C° 0 mm 5 mps 727 mmHg 30%
    20:00 +17°C° 0 mm 5 mps 727 mmHg 33%
    21:00 +17°C° 0 mm 4 mps 728 mmHg 37%
    22:00 +16°C° 0 mm 3 mps 728 mmHg 40%
    23:00 +16°C° 0 mm 3 mps 728 mmHg 43%
    Show more